Location: Lugrin
(46.4033°N, 6.6674°E)
Time: 14:44:23
(UTC+00:00)

Cosmos 2227 - Pass Details

Date: 18 September 2020
Orbit: 836 x 859 km, 71.0° (Epoch: 23 October)

Event Time Altitude Azimuth Distance (km) Brightness Sun altitude
Rises 17:56:43 0° 192° (SSW) 3,419 7.4 -4.0°
Reaches altitude 10° 17:59:12 10° 188° (S) 2,485 6.7 -4.4°
Maximum altitude 18:04:47 58° 111° (ESE) 997 4.3 -5.4°
Drops below altitude 10° 18:10:23 10° 34° (NNE) 2,490 6.4 -6.3°
Sets 18:12:52 0° 30° (NNE) 3,426 7.1 -6.8°
